| time (UTC) | temp F | wind direction | speed MPH | gust MPH | rain 1hr in | rain 24hr in | rain mn in | humidity % | barometer mb |
| 20260831071556 | 0 | 0.0 | 0.0 | 0.00 | 0.00 | 0.00 | 1017.7 | ||
| 20260831070033 | 0 | 0.0 | 0.0 | 0.00 | 0.00 | 0.00 | 1017.8 | ||
| 20260831064529 | 0 | 0.0 | 0.0 | 0.00 | 0.00 | 0.00 | 1017.7 | ||
| 20260831063025 | 0 | 0.0 | 0.0 | 0.00 | 0.00 | 0.00 | 1017.7 | ||
| 20260831061519 | 0 | 0.0 | 0.0 | 0.00 | 0.00 | 0.00 | 1017.8 | ||
| 20260831060015 | 0 | 0.0 | 0.0 | 0.00 | 0.00 | 0.00 | 1017.7 | ||
| 20260831054511 | 0 | 0.0 | 0.0 | 0.00 | 0.00 | 0.00 | 1017.4 | ||
| 20260831053031 | 0 | 0.0 | 0.0 | 0.00 | 0.00 | 0.00 | 1017.3 | ||
| 20260831051502 | 0 | 0.0 | 0.0 | 0.00 | 0.00 | 0.00 | 1017.2 | ||
| 20260831050058 | 0 | 0.0 | 0.0 | 0.00 | 0.00 | 0.00 | 1017.0 | ||
| 20260831044554 | 0 | 0.0 | 0.0 | 0.00 | 0.00 | 0.00 | 1016.9 | ||
| 20260831043049 | 0 | 0.0 | 0.0 | 0.00 | 0.00 | 0.00 | 1016.8 | ||
| 20260831041545 | 0 | 0.0 | 0.0 | 0.00 | 0.00 | 0.00 | 1016.8 | ||
| 20260831040041 | 0 | 0.0 | 0.0 | 0.00 | 0.00 | 0.00 | 1016.8 | ||
| 20260831034537 | 0 | 0.0 | 0.0 | 0.00 | 0.00 | 0.00 | 1016.7 | ||
| 20260831033045 | 0 | 0.0 | 0.0 | 0.00 | 0.00 | 0.00 | 1016.8 | ||
| 20260831031529 | 0 | 0.0 | 0.0 | 0.00 | 0.00 | 0.00 | 1016.8 | ||
| 20260831030025 | 72 | 0.0 | 0.0 | 0.00 | 0.00 | 0.00 | 79 | 1016.5 | |
| 20260831024525 | 72 | 0.0 | 0.0 | 0.00 | 0.00 | 0.00 | 79 | 1016.6 | |
| 20260831023034 | 72 | 0.0 | 0.0 | 0.00 | 0.00 | 0.00 | 79 | 1016.7 | |
| 20260831021534 | 72 | 0.0 | 1.0 | 0.00 | 0.00 | 0.00 | 81 | 1016.6 | |
| 20260831020046 | 72 | 0.0 | 1.0 | 0.00 | 0.00 | 0.00 | 82 | 1016.7 | |
| 20260831014523 | 72 | 0.0 | 0.0 | 0.00 | 0.00 | 0.00 | 81 | 1016.5 | |
| 20260831013022 | 72 | 0.0 | 0.0 | 0.00 | 0.00 | 0.00 | 80 | 1016.3 | |
| 20260831011525 | 72 | 0.0 | 0.0 | 0.00 | 0.00 | 0.00 | 80 | 1016.3 | |
| 20260831010021 | 73 | 0.0 | 1.0 | 0.00 | 0.00 | 0.00 | 80 | 1016.3 | |
| 20260831004521 | 73 | 0.0 | 1.0 | 0.00 | 0.00 | 0.00 | 79 | 1016.1 | |
| 20260831003020 | 73 | 0.0 | 1.0 | 0.00 | 0.00 | 0.00 | 78 | 1015.9 | |
| 20260831001526 | 73 | 0.0 | 0.0 | 0.00 | 0.00 | 0.00 | 78 | 1015.7 | |
| 20260831000021 | 73 | 0.0 | 0.0 | 0.00 | 0.00 | 0.00 | 77 | 1015.6 | |
| 20260830234533 | 73 | 0.0 | 0.0 | 0.00 | 0.00 | 0.00 | 76 | 1015.5 | |
| 20260830233019 | 74 | 0.0 | 0.0 | 0.00 | 0.00 | 0.00 | 74 | 1015.5 | |
| 20260830231521 | 74 | 0.0 | 3.0 | 0.00 | 0.00 | 0.00 | 73 | 1015.5 | |
| 20260830230017 | 74 | 0.0 | 1.0 | 0.00 | 0.00 | 0.00 | 71 | 1015.5 | |
| 20260830224517 | 75 | 0.0 | 0.0 | 0.00 | 0.00 | 0.00 | 70 | 1015.8 | |
| 20260830223015 | 75 | 0.0 | 0.0 | 0.00 | 0.00 | 0.00 | 69 | 1015.7 | |
| 20260830221515 | 76 | 0.0 | 0.0 | 0.00 | 0.00 | 0.00 | 68 | 1015.8 | |
| 20260830220014 | 76 | 0.0 | 0.0 | 0.00 | 0.00 | 0.00 | 67 | 1015.9 | |
| 20260830214513 | 76 | 0.0 | 2.0 | 0.00 | 0.00 | 0.00 | 67 | 1015.8 | |
| 20260830213023 | 76 | 0.0 | 0.0 | 0.00 | 0.00 | 0.00 | 67 | 1015.9 | |
| 20260830211511 | 77 | 0.0 | 1.0 | 0.00 | 0.00 | 0.00 | 68 | 1016.0 | |
| 20260830210027 | 77 | 0.0 | 1.0 | 0.00 | 0.00 | 0.00 | 67 | 1016.2 | |
| 20260830204510 | 78 | 0.0 | 1.0 | 0.00 | 0.00 | 0.00 | 67 | 1016.2 | |
| 20260830203009 | 78 | 0.0 | 1.0 | 0.00 | 0.00 | 0.00 | 67 | 1016.1 | |
| 20260830201508 | 78 | 0.0 | 2.0 | 0.00 | 0.00 | 0.00 | 67 | 1016.2 | |
| 20260830200008 | 78 | 0.0 | 2.0 | 0.00 | 0.00 | 0.00 | 67 | 1016.5 | |
| 20260830194505 | 78 | 0.0 | 2.0 | 0.00 | 0.00 | 0.00 | 66 | 1016.5 | |
| 20260830193011 | 78 | 0.0 | 2.0 | 0.00 | 0.00 | 0.00 | 65 | 1016.8 | |
| 20260830191508 | 78 | 0.0 | 4.0 | 0.00 | 0.00 | 0.00 | 62 | 1017.0 | |
| 20260830190002 | 79 | 0.0 | 2.0 | 0.00 | 0.00 | 0.00 | 61 | 1017.4 | |
| 20260830184503 | 80 | 0.0 | 4.0 | 0.00 | 0.00 | 0.00 | 58 | 1017.4 | |
| 20260830183102 | 80 | 0.0 | 4.0 | 0.00 | 0.00 | 0.00 | 58 | 1017.5 | |
| 20260830181603 | 81 | 0.0 | 0.0 | 0.00 | 0.00 | 0.00 | 60 | 1017.4 | |
| 20260830180202 | 82 | 0.0 | 0.0 | 0.00 | 0.00 | 0.00 | 57 | 1017.3 | |
| 20260830174602 | 83 | 0.0 | 0.0 | 0.00 | 0.00 | 0.00 | 57 | 1017.5 | |
| 20260830173055 | 82 | 0.0 | 0.0 | 0.00 | 0.00 | 0.00 | 57 | 1017.9 | |
| 20260830171554 | 82 | 0.0 | 0.0 | 0.00 | 0.00 | 0.00 | 58 | 1017.9 | |
| 20260830170054 | 81 | 0.0 | 0.0 | 0.00 | 0.00 | 0.00 | 57 | 1018.0 | |
| 20260830164552 | 80 | 0.0 | 1.0 | 0.00 | 0.00 | 0.00 | 57 | 1018.0 | |
| 20260830163052 | 81 | 0.0 | 3.0 | 0.00 | 0.00 | 0.00 | 55 | 1018.4 | |
| 20260830161604 | 80 | 0.0 | 3.0 | 0.00 | 0.00 | 0.00 | 57 | 1018.4 | |
| 20260830160048 | 80 | 0.0 | 1.0 | 0.00 | 0.00 | 0.00 | 57 | 1018.8 | |
| 20260830154547 | 80 | 0.0 | 3.0 | 0.00 | 0.00 | 0.00 | 54 | 1018.7 | |
| 20260830153055 | 81 | 0.0 | 3.0 | 0.00 | 0.00 | 0.00 | 53 | 1018.7 | |
| 20260830151547 | 82 | 0.0 | 3.0 | 0.00 | 0.00 | 0.00 | 53 | 1018.8 | |
| 20260830150046 | 82 | 0.0 | 2.0 | 0.00 | 0.00 | 0.00 | 57 | 1019.1 | |
| 20260830144541 | 81 | 0.0 | 3.0 | 0.00 | 0.00 | 0.00 | 58 | 1019.0 | |
| 20260830143045 | 80 | 0.0 | 4.0 | 0.00 | 0.00 | 0.00 | 60 | 1019.1 | |
| 20260830141534 | 80 | 0.0 | 4.0 | 0.00 | 0.00 | 0.00 | 61 | 1019.3 | |
| 20260830140033 | 78 | 0.0 | 1.0 | 0.00 | 0.00 | 0.00 | 63 | 1019.4 | |
| 20260830134535 | 77 | 0.0 | 1.0 | 0.00 | 0.00 | 0.00 | 64 | 1019.5 | |
| 20260830133033 | 75 | 0.0 | 3.0 | 0.00 | 0.00 | 0.00 | 67 | 1019.4 | |
| 20260830131522 | 74 | 0.0 | 1.0 | 0.00 | 0.00 | 0.00 | 69 | 1019.4 | |
| 20260830130018 | 71 | 0.0 | 0.0 | 0.00 | 0.00 | 0.00 | 73 | 1019.7 | |
| 20260830124514 | 68 | 0.0 | 1.0 | 0.00 | 0.00 | 0.00 | 77 | 1019.8 | |
| 20260830123009 | 66 | 0.0 | 0.0 | 0.00 | 0.00 | 0.00 | 80 | 1020.0 | |
| 20260830121504 | 64 | 0.0 | 0.0 | 0.00 | 0.00 | 0.00 | 83 | 1020.2 | |
| 20260830120101 | 0 | 0.0 | 0.0 | 0.00 | 0.00 | 0.00 | 1020.2 | ||
| 20260830114612 | 0 | 0.0 | 0.0 | 0.00 | 0.00 | 0.00 | 1020.1 | ||
| 20260830113053 | 0 | 0.0 | 0.0 | 0.00 | 0.00 | 0.00 | 1020.2 | ||
| 20260830111548 | 0 | 0.0 | 0.0 | 0.00 | 0.00 | 0.00 | 1020.2 | ||
| 20260830110042 | 0 | 0.0 | 0.0 | 0.00 | 0.00 | 0.00 | 1020.3 | ||
| 20260830104538 | 0 | 0.0 | 0.0 | 0.00 | 0.00 | 0.00 | 1020.2 | ||
| 20260830103035 | 0 | 0.0 | 0.0 | 0.00 | 0.00 | 0.00 | 1020.2 | ||
| 20260830101530 | 0 | 0.0 | 0.0 | 0.00 | 0.00 | 0.00 | 1020.2 | ||
| 20260830100029 | 0 | 0.0 | 0.0 | 0.00 | 0.00 | 0.00 | 1020.2 | ||
| 20260830094521 | 0 | 0.0 | 0.0 | 0.00 | 0.00 | 0.00 | 1020.3 | ||
| 20260830093019 | 0 | 0.0 | 0.0 | 0.00 | 0.00 | 0.00 | 1020.1 | ||
| 20260830091513 | 0 | 0.0 | 0.0 | 0.00 | 0.00 | 0.00 | 1020.3 | ||
| 20260830090008 | 0 | 0.0 | 0.0 | 0.00 | 0.00 | 0.00 | 1020.2 | ||
| 20260830084504 | 0 | 0.0 | 0.0 | 0.00 | 0.00 | 0.00 | 1020.6 | ||
| 20260830083107 | 0 | 0.0 | 0.0 | 0.00 | 0.00 | 0.00 | 1020.7 | ||
| 20260830081615 | 0 | 0.0 | 0.0 | 0.00 | 0.00 | 0.00 | 1020.8 | ||
| 20260830080050 | 0 | 0.0 | 0.0 | 0.00 | 0.00 | 0.00 | 1020.9 | ||
| 20260830074559 | 0 | 0.0 | 0.0 | 0.00 | 0.00 | 0.00 | 1020.7 | ||
| 20260830073042 | 0 | 0.0 | 0.0 | 0.00 | 0.00 | 0.00 | 1020.7 |